[[{"header":{"parameterUnit":"m.s-1","parameterCategory":1,"la1":30.2991,"la2":30.254,"lo1":-89.0895,"lo2":-89.0444,"dy":0.0017,"dx":0.0017,"nx":28,"ny":28,"refTime":"2025-12-17T03:00:00:Z","depth":0,"parameterNumber":2,"parameterNumberName":"U-component_of_WINDS"},"data":[0,0,0,0,0,0,0,0,0,0,0,0,0,0,0,0,0,0,0,0,0,0,0,0,0,0,0,0,0,0,0,0,0,0,0,0,0,0,0,0,0,0,0,0,0,0,0,0,0,0,0,0,0,0,0,0,0,0,-0.3982,-0.3982,0,-0.3987,-0.3987,-0.3987,-0.399,-0.399,-0.399,-0.399,-0.3995,-0.3995,-0.3995,0,0,0,0,0,0,0,0,0,0,0,0,0,-0.3975,-0.3975,-0.3982,-0.3982,-0.3982,-0.3987,-0.3987,-0.3987,-0.399,-0.399,-0.399,-0.399,-0.3995,-0.3995,-0.3995,0,0,0,0,0,0,0,0,0,0,0,0,0,-0.3979,-0.3975,-0.3982,-0.3984,-0.3984,-0.3987,-0.3987,-0.3987,-0.399,-0.399,-0.399,-0.399,-0.3995,-0.3995,-0.3995,-0.3996,0,0,-0.3996,-0.3996,0,0,0,0,0,0,0,0,-0.3978,-0.3979,-0.3984,-0.3984,-0.3984,-0.3988,-0.3986,-0.399,-0.399,-0.3988,-0.399,-0.399,-0.3992,-0.3993,-0.3994,-0.3996,-0.3996,-0.3996,-0.3996,-0.3996,-0.3996,0,0,0,0,0,0,0,-0.3978,-0.3979,-0.3984,-0.3984,-0.3984,-0.3985,-0.3985,-0.3987,-0.399,-0.3988,-0.3988,-0.3989,-0.3993,-0.3994,-0.3994,-0.3996,-0.3996,-0.3996,-0.3996,-0.3996,-0.3999,-0.3999,0,0,0,0,0,0,-0.3978,-0.3979,-0.3984,-0.3984,-0.3981,-0.3985,-0.3985,-0.3987,-0.399,-0.399,-0.3989,-0.3989,-0.3993,-0.3994,-0.3994,-0.3995,-0.3996,-0.3996,-0.3996,-0.3999,-0.3999,-0.3999,0,0,0,0,0,0,-0.3977,-0.3978,-0.3983,-0.3981,-0.3982,-0.3985,-0.3986,-0.3987,-0.3988,-0.399,-0.3991,-0.3989,-0.3993,-0.3994,-0.3995,-0.3995,-0.3996,-0.3996,-0.3999,-0.3999,-0.3999,-0.3996,0,0,0,0,0,0,-0.3977,-0.3978,-0.3978,-0.3981,-0.3982,-0.3985,-0.3986,-0.3987,-0.3988,-0.3988,-0.3991,-0.3991,-0.3993,-0.3995,-0.3995,-0.3995,-0.3996,-0.3999,-0.3999,-0.3999,-0.3996,-0.3996,-0.3995,0,0,0,0,0,-0.3977,-0.3977,-0.3978,-0.3979,-0.3983,-0.3985,-0.3985,-0.3987,-0.3988,-0.3988,-0.399,-0.3991,-0.3995,-0.3995,-0.3995,-0.3995,-0.3999,-0.3999,-0.3999,-0.3996,-0.3996,-0.3995,0,0,0,0,0,0,-0.3974,-0.3978,-0.3979,-0.398,-0.3982,-0.3985,-0.3986,-0.3987,-0.3988,-0.3989,-0.3991,-0.3992,-0.3993,-0.3994,-0.3994,-0.3996,-0.3997,-0.3997,-0.3995,-0.3995,-0.3994,-0.3994,-0.3997,0,0,0,0,0,-0.3974,-0.3975,-0.3978,-0.3979,-0.398,-0.3983,-0.3984,-0.3985,-0.3987,-0.3988,-0.399,-0.3991,-0.3993,-0.3994,-0.3995,-0.3996,-0.3997,-0.3996,-0.3996,-0.3996,-0.3996,-0.3996,-0.3996,-0.3998,-0.3998,-0.3998,0,0,-0.3973,-0.3975,-0.3976,-0.3979,-0.398,-0.3982,-0.3983,-0.3985,-0.3985,-0.3988,-0.3989,-0.3991,-0.3993,-0.3994,-0.3994,-0.3995,-0.3995,-0.3996,-0.3996,-0.3996,-0.3996,-0.3996,-0.3995,-0.3998,-0.3998,-0.3998,0,0,-0.3972,-0.3974,-0.3975,-0.3976,-0.3979,-0.398,-0.398,-0.3983,-0.3984,-0.3986,-0.3987,-0.3988,-0.3991,-0.3992,-0.3993,-0.3992,-0.3994,-0.3993,-0.3992,-0.3992,-0.3992,-0.3991,-0.3991,-0.3991,-0.3993,-0.3993,-0.3993,0,-0.3971,-0.3973,-0.3975,-0.3976,-0.3977,-0.398,-0.398,-0.3982,-0.3984,-0.3985,-0.3986,-0.3989,-0.399,-0.3991,-0.3991,-0.3992,-0.3992,-0.3993,-0.3991,-0.3991,-0.3991,-0.3991,-0.3991,-0.3993,-0.3993,-0.3993,-0.3993,0,-0.3971,-0.3972,-0.3973,-0.3975,-0.3976,-0.3977,-0.3979,-0.398,-0.3982,-0.3983,-0.3984,-0.3986,-0.3988,-0.3988,-0.399,-0.399,-0.399,-0.3991,-0.3992,-0.3991,-0.399,-0.399,-0.3993,-0.3993,-0.3993,-0.3993,0,0,-0.3969,-0.3972,-0.3972,-0.3973,-0.3976,-0.3977,-0.3978,-0.3979,-0.398,-0.3982,-0.3982,-0.3984,-0.3985,-0.3986,-0.3988,-0.3988,-0.3987,-0.3989,-0.3989,-0.3988,-0.3986,-0.3986,-0.3985,-0.3988,-0.3988,-0.3988,-0.3986,0,-0.3968,-0.397,-0.3972,-0.3973,-0.3974,-0.3976,-0.3977,-0.3978,-0.398,-0.3981,-0.3982,-0.3983,-0.3984,-0.3985,-0.3985,-0.3987,-0.3986,-0.3987,-0.3988,-0.3988,-0.3987,-0.3985,-0.3984,-0.3983,-0.3986,-0.3986,-0.3986,0,-0.3968,-0.3969,-0.3971,-0.3973,-0.3973,-0.3974,-0.3975,-0.3976,-0.3978,-0.3979,-0.398,-0.3981,-0.3982,-0.3983,-0.3984,-0.3984,-0.3985,-0.3986,-0.3986,-0.3986,-0.3987,-0.3985,-0.3983,-0.3982,-0.3986,-0.3986,-0.3986,0,-0.3966,-0.3968,-0.3969,-0.397,-0.3972,-0.3973,-0.3974,-0.3975,-0.3976,-0.3977,-0.3978,-0.3979,-0.398,-0.3981,-0.3983,-0.3983,-0.3983,-0.3985,-0.3984,-0.3984,-0.3984,-0.3984,-0.3981,-0.3984,-0.3984,-0.3984,-0.3984,0,-0.3965,-0.3966,-0.3968,-0.3969,-0.3969,-0.3971,-0.3972,-0.3973,-0.3974,-0.3975,-0.3977,-0.3977,-0.398,-0.398,-0.3982,-0.3982,-0.3982,-0.3983,-0.3983,-0.3983,-0.3983,-0.3983,-0.3983,-0.3984,-0.3984,-0.3984,-0.3984,0,-0.3963,-0.3965,-0.3966,-0.3968,-0.3969,-0.3969,-0.3971,-0.3971,-0.3972,-0.3973,-0.3973,-0.3975,-0.3976,-0.3978,-0.398,-0.398,-0.3981,-0.3981,-0.398,-0.398,-0.3979,-0.3979,-0.3977,-0.3977,-0.398,-0.398,-0.398,0,-0.3963,-0.3963,-0.3965,-0.3966,-0.3966,-0.3967,-0.3968,-0.397,-0.397,-0.3972,-0.3972,-0.3973,-0.3974,-0.3976,-0.3977,-0.3978,-0.3979,-0.3978,-0.3979,-0.3978,-0.3979,-0.3978,-0.3978,-0.3978,-0.3978,-0.3978,-0.3978,0,-0.3961,-0.3962,-0.3963,-0.3964,-0.3965,-0.3966,-0.3967,-0.3967,-0.3969,-0.397,-0.3971,-0.3971,-0.3973,-0.3973,-0.3975,-0.3976,-0.3977,-0.3977,-0.3977,-0.3976,-0.3976,-0.3976,-0.3979,-0.3977,-0.3977,-0.3977,-0.3977,-0.3977,-0.396,-0.396,-0.3961,-0.3962,-0.3963,-0.3964,-0.3964,-0.3966,-0.3966,-0.3968,-0.3969,-0.3969,-0.3971,-0.3972,-0.3973,-0.3974,-0.3974,-0.3974,-0.3974,-0.3974,-0.3974,-0.3976,-0.3974,-0.3974,-0.3974,-0.3974,-0.3974,0,-0.3958,-0.3959,-0.396,-0.3961,-0.3962,-0.3963,-0.3964,-0.3964,-0.3965,-0.3966,-0.3967,-0.3967,-0.3968,-0.397,-0.397,-0.3971,-0.3971,-0.3971,-0.3971,-0.3971,-0.3973,-0.3973,-0.397,-0.397,-0.397,-0.397,-0.397,-0.397,-0.3957,-0.3958,-0.3958,-0.3959,-0.396,-0.3961,-0.3961,-0.3962,-0.3963,-0.3964,-0.3964,-0.3965,-0.3966,-0.3967,-0.3968,-0.3968,-0.3968,-0.3968,-0.3968,-0.397,-0.3971,-0.3971,-0.3971,-0.3968,-0.3968,-0.3966,-0.3966,-0.3966]},{"header":{"parameterUnit":"m.s-1","parameterCategory":1,"la1":30.2991,"la2":30.254,"lo1":-89.0895,"lo2":-89.0444,"dy":0.0017,"dx":0.0017,"nx":28,"ny":28,"refTime":"2025-12-17T03:00:00:Z","depth":0,"parameterNumber":3,"parameterNumberName":"V-component_of_WINDS"},"data":[0,0,0,0,0,0,0,0,0,0,0,0,0,0,0,0,0,0,0,0,0,0,0,0,0,0,0,0,0,0,0,0,0,0,0,0,0,0,0,0,0,0,0,0,0,0,0,0,0,0,0,0,0,0,0,0,0,0,3.5782,3.5781,0,3.5762,3.5761,3.5761,3.5714,3.5713,3.5712,3.5711,3.5689,3.5689,3.569,0,0,0,0,0,0,0,0,0,0,0,0,0,3.5779,3.5779,3.5782,3.5781,3.5781,3.5762,3.5761,3.5761,3.5714,3.5712,3.5711,3.571,3.5689,3.5689,3.569,0,0,0,0,0,0,0,0,0,0,0,0,0,3.5772,3.5779,3.5782,3.5755,3.5753,3.5762,3.5761,3.5761,3.5714,3.5712,3.5711,3.571,3.5689,3.5689,3.569,3.5722,0,0,3.5691,3.5691,0,0,0,0,0,0,0,0,3.5772,3.5772,3.5759,3.5757,3.5754,3.5739,3.5752,3.5748,3.5714,3.5729,3.5711,3.5709,3.5707,3.5705,3.5705,3.5721,3.572,3.5691,3.5692,3.5692,3.5692,0,0,0,0,0,0,0,3.5773,3.5772,3.5774,3.5759,3.5756,3.5744,3.5742,3.5751,3.5726,3.5727,3.5724,3.5722,3.5705,3.5705,3.5704,3.572,3.5691,3.5692,3.5692,3.5692,3.5764,3.5766,0,0,0,0,0,0,3.5777,3.5773,3.5774,3.5773,3.576,3.5746,3.5743,3.5745,3.5726,3.5722,3.5723,3.572,3.5704,3.5704,3.5703,3.5742,3.5692,3.5692,3.5693,3.5763,3.5765,3.5766,0,0,0,0,0,0,3.5777,3.5778,3.5775,3.5772,3.5771,3.5747,3.575,3.5745,3.5745,3.5723,3.5718,3.5728,3.5703,3.5702,3.5718,3.574,3.5692,3.5693,3.5761,3.5763,3.5765,3.5818,0,0,0,0,0,0,3.5777,3.5778,3.579,3.5773,3.5771,3.5791,3.5752,3.5746,3.5746,3.5742,3.5726,3.5722,3.5702,3.5718,3.5719,3.574,3.5693,3.5759,3.5762,3.5765,3.5814,3.5822,3.5829,0,0,0,0,0,3.5777,3.5805,3.5791,3.5791,3.5786,3.5792,3.5791,3.5769,3.5748,3.576,3.5746,3.5722,3.5737,3.572,3.5721,3.5742,3.5757,3.5761,3.5764,3.5811,3.5821,3.5828,0,0,0,0,0,0,3.5825,3.5802,3.5786,3.5809,3.5803,3.5784,3.5799,3.5779,3.5778,3.5774,3.5745,3.5742,3.5762,3.5753,3.5734,3.5774,3.5743,3.5747,3.5779,3.5788,3.5795,3.5797,3.5694,0,0,0,0,0,3.5838,3.5845,3.5825,3.5847,3.5845,3.5823,3.5825,3.5808,3.58,3.5797,3.5784,3.5777,3.5781,3.5783,3.5785,3.5813,3.5809,3.5828,3.5835,3.5841,3.5845,3.5861,3.5869,3.5778,3.5778,3.5778,0,0,3.5865,3.5854,3.586,3.5857,3.585,3.5858,3.5821,3.5831,3.5837,3.5798,3.5813,3.5804,3.5794,3.5817,3.5826,3.581,3.5869,3.5846,3.5851,3.5851,3.5865,3.5874,3.5882,3.5781,3.578,3.578,0,0,3.592,3.5911,3.593,3.5924,3.5915,3.59,3.5905,3.5889,3.5881,3.5896,3.5868,3.5874,3.588,3.5875,3.5873,3.5928,3.5906,3.5929,3.5966,3.5982,3.5989,3.5995,3.6016,3.6024,3.5933,3.5933,3.5933,0,3.5955,3.5967,3.5942,3.5954,3.5954,3.592,3.5939,3.5934,3.5926,3.5927,3.5909,3.5917,3.5908,3.593,3.5944,3.5943,3.5948,3.5931,3.599,3.5996,3.6002,3.6021,3.6029,3.5936,3.5935,3.5935,3.5935,0,3.6011,3.602,3.6036,3.603,3.6031,3.6046,3.6024,3.6029,3.6012,3.5999,3.6015,3.6003,3.6003,3.6007,3.599,3.6026,3.6017,3.5995,3.5965,3.6014,3.6032,3.6039,3.594,3.5939,3.5938,3.5937,0,0,3.6094,3.6075,3.6082,3.6079,3.6067,3.6073,3.6088,3.6088,3.6093,3.6088,3.61,3.6107,3.6087,3.6085,3.6068,3.6081,3.6127,3.6058,3.6057,3.6072,3.6169,3.6186,3.6195,3.6112,3.6113,3.6114,3.617,0,3.6147,3.6171,3.615,3.6178,3.6186,3.6155,3.6167,3.6162,3.615,3.6156,3.6142,3.6148,3.6121,3.612,3.6132,3.6119,3.6146,3.6114,3.6124,3.6124,3.6129,3.6204,3.6223,3.6276,3.6177,3.6178,3.6179,0,3.6211,3.6211,3.6241,3.6228,3.6231,3.6242,3.6242,3.6247,3.624,3.6231,3.623,3.6209,3.6222,3.6192,3.6211,3.619,3.6192,3.6186,3.6188,3.6189,3.6155,3.6209,3.6292,3.63,3.6189,3.6188,3.6187,0,3.6271,3.6278,3.6297,3.6296,3.6281,3.629,3.6285,3.6276,3.6278,3.6277,3.6279,3.6279,3.628,3.6281,3.6261,3.624,3.6283,3.625,3.6277,3.6277,3.6288,3.6288,3.6374,3.6287,3.6287,3.6287,3.6287,0,3.6333,3.6353,3.6324,3.6336,3.6358,3.6333,3.6355,3.6345,3.6338,3.6348,3.632,3.633,3.6302,3.6309,3.6293,3.6312,3.6312,3.6306,3.6302,3.6309,3.631,3.6311,3.6308,3.6289,3.6289,3.6288,3.6288,0,3.6404,3.6386,3.6405,3.639,3.6386,3.6403,3.639,3.6401,3.6388,3.64,3.6402,3.6382,3.6389,3.6368,3.6372,3.6361,3.639,3.6378,3.6392,3.639,3.6418,3.6416,3.6509,3.652,3.6425,3.6426,3.6427,0,3.6445,3.646,3.6447,3.6452,3.6448,3.6456,3.6458,3.6435,3.6438,3.6432,3.6444,3.6448,3.6451,3.6464,3.6449,3.6452,3.6442,3.6474,3.6442,3.645,3.6444,3.6444,3.6446,3.6481,3.6482,3.6483,3.6484,0,3.6521,3.6511,3.6516,3.6518,3.6522,3.6523,3.6521,3.6526,3.6501,3.6507,3.6514,3.6516,3.652,3.6526,3.6526,3.652,3.6499,3.6494,3.6501,3.6509,3.6518,3.6515,3.6412,3.6492,3.6492,3.6491,3.6491,3.649,3.6579,3.6592,3.6585,3.6592,3.6588,3.6588,3.6597,3.6586,3.6592,3.6594,3.6579,3.659,3.6584,3.6582,3.6578,3.6586,3.6571,3.658,3.6583,3.6586,3.6592,3.6515,3.6586,3.6585,3.6585,3.6585,3.6585,0,3.6655,3.6649,3.6656,3.6655,3.6661,3.664,3.6637,3.6644,3.6654,3.665,3.6653,3.6662,3.6668,3.6654,3.6658,3.6667,3.6658,3.6669,3.6669,3.6668,3.6604,3.6598,3.6677,3.6677,3.6677,3.6677,3.6677,3.6677,3.6695,3.6715,3.6705,3.6724,3.6718,3.6729,3.673,3.6729,3.6726,3.6738,3.6743,3.6734,3.6726,3.6729,3.6734,3.673,3.6733,3.6748,3.6741,3.6681,3.6672,3.6664,3.6659,3.6749,3.6749,3.6805,3.6806,3.6806]}]]